Weather History for KUZA - January, 2014

Change the Weather History Date:

Thursday, January 30, 2014

  Actual Average (KCLT) Record (KCLT)
Temperature  
Mean Temperature 23 °F 41 °F  
Max Temperature 37 °F 52 °F 78 °F (2002)
Min Temperature 9 °F 30 °F 4 °F (1966)
Degree Days  
Heating Degree Days 42 24  
Month to date heating degree days 744  
Since 1 July heating degree days 2081  
Cooling Degree Days 0 0  
Month to date cooling degree days 0  
Year to date cooling degree days 0  
Moisture  
Dew Point 7 °F    
Average Humidity 65    
Maximum Humidity 92    
Minimum Humidity 24    
Precipitation  
Precipitation 0.00 in 0.11 in 1.13 in (1960)
Month to date precipitation 3.30  
Year to date precipitation 3.30  
Snow  
Snow 0.00 in 0.00 in 3.90 in (1936)
Month to date snowfall 2.0  
Since 1 July snowfall 2.4  
Snow Depth -    
Sea Level Pressure  
Sea Level Pressure 30.36 in    
Wind  
Wind Speed 1 mph (NE)    
Max Wind Speed 7 mph    
Max Gust Speed -    
Visibility 7 miles    
Events Fog    
T = Trace of Precipitation, MM = Missing Value Source: NWS Daily Summary

Daily Weather History Graph

Daily Weather History Graph

Search for Another Location

Airport or City:

Trip Planner

Search our weather history database for the weather conditions in past years. The results will help you decide how hot, cold, wet, or windy it might be!

Date:

Astronomy

Jan. 30, 2014 Rise Set
Actual Time 7:24 AM EST 5:51 PM EST
Civil Twilight 6:57 AM EST 6:17 PM EST
Nautical Twilight 6:27 AM EST 6:48 PM EST
Astronomical Twilight 5:57 AM EST 7:17 PM EST
Moon 6:50 AM EST (1/30) 5:58 PM EST (1/30)
Length of Visible Light 11h 20m
Length of Day
10h 26m
Waning Crescent, 0% of the Moon is Illuminated
Jan 30
Waning Crescent
Jan 30
New
Feb 6
First Quarter
Feb 14
Full
Feb 22
Last Quarter

Hourly Weather History & Observations

Time (EST) Temp. Windchill Dew Point Humidity Pressure Visibility Wind Dir Wind Speed Gust Speed Precip Events Conditions
12:54 AM 15.1 °F - 8.1 °F 74% 30.39 in 10.0 mi Calm Calm - N/A   Clear
1:54 AM 12.9 °F - 7.0 °F 77% 30.40 in 9.0 mi Calm Calm - N/A   Clear
2:54 AM 12.9 °F - 7.0 °F 77% 30.41 in 10.0 mi Calm Calm - N/A   Clear
3:54 AM 10.0 °F - 7.0 °F 87% 30.40 in 9.0 mi Calm Calm - N/A   Clear
4:49 AM 10.4 °F - 6.8 °F 85% 30.35 in 8.0 mi Calm Calm - N/A   Partly Cloudy
4:54 AM 10.0 °F - 7.0 °F 87% 30.40 in 8.0 mi Calm Calm - N/A   Partly Cloudy
5:18 AM 10.0 °F - 5.0 °F 80% 30.35 in 7.0 mi Calm Calm - N/A   Mostly Cloudy
5:33 AM 10.9 °F - 7.0 °F 84% 30.35 in 2.0 mi Calm Calm - N/A   Overcast
5:48 AM 10.4 °F 4.0 °F 8.6 °F 92% 30.35 in 0.5 mi NNE 3.5 mph - N/A Fog Light Freezing Fog
5:54 AM 10.9 °F 4.7 °F 9.0 °F 92% 30.40 in 0.2 mi North 3.5 mph - N/A Fog Light Freezing Fog
6:40 AM 10.0 °F - 8.1 °F 92% 30.36 in 0.8 mi Calm Calm - N/A   Clear
6:54 AM 10.0 °F - 8.1 °F 92% 30.41 in 0.8 mi Calm Calm - N/A   Clear
6:59 AM 10.0 °F - 7.0 °F 87% 30.36 in 1.0 mi Calm Calm - N/A   Mist
7:12 AM 10.0 °F - 7.0 °F 87% 30.36 in 2.0 mi Calm Calm - N/A   Partly Cloudy
7:22 AM 9.0 °F - 6.1 °F 88% 30.36 in 3.0 mi Calm Calm - N/A   Partly Cloudy
7:54 AM 10.0 °F - 6.1 °F 84% 30.43 in 4.0 mi Calm Calm - N/A   Clear
8:54 AM 17.1 °F 11.7 °F 8.1 °F 68% 30.44 in 10.0 mi Variable 3.5 mph - N/A   Clear
9:54 AM 25.0 °F 17.1 °F 5.0 °F 43% 30.44 in 10.0 mi ENE 6.9 mph - N/A   Clear
10:54 AM 28.9 °F - 6.1 °F 38% 30.43 in 10.0 mi North - - N/A   Clear
11:54 AM 32.0 °F - 6.1 °F 34% 30.42 in 10.0 mi North - - N/A   Clear
12:54 PM 34.0 °F 31.0 °F 3.9 °F 28% 30.36 in 10.0 mi Variable 3.5 mph - N/A   Clear
1:54 PM 35.1 °F 31.0 °F 3.9 °F 27% 30.33 in 10.0 mi Variable 4.6 mph - N/A   Clear
2:54 PM 37.0 °F 33.3 °F 3.9 °F 25% 30.30 in 10.0 mi SE 4.6 mph - N/A   Clear
3:54 PM 37.9 °F - 3.9 °F 24% 30.29 in 10.0 mi Calm Calm - N/A   Clear
4:54 PM 37.9 °F 35.5 °F 5.0 °F 25% 30.28 in 10.0 mi Variable 3.5 mph - N/A   Clear
5:54 PM 34.0 °F - 6.1 °F 31% 30.26 in 10.0 mi Calm Calm - N/A   Clear
6:54 PM 28.0 °F - 8.1 °F 43% 30.30 in 10.0 mi Calm Calm - N/A   Clear
7:54 PM 24.1 °F - 10.0 °F 55% 30.29 in 10.0 mi Calm Calm - N/A   Clear
8:54 PM 21.9 °F - 10.0 °F 60% 30.29 in 10.0 mi Calm Calm - N/A   Clear
9:54 PM 19.9 °F - 10.0 °F 65% 30.30 in 10.0 mi Calm Calm - N/A   Clear
10:54 PM 19.0 °F - 10.0 °F 68% 30.28 in 10.0 mi Calm Calm - N/A   Clear
11:54 PM 19.0 °F - 10.9 °F 71% 30.27 in 10.0 mi Calm Calm - N/A   Clear